Temperature
20 19 19 19 19 19 18 18 18 17 17 17 17 17 16 16 16 16 16 16 16 16 16 16 15 15 15 15 15 15 15 15 15 15 15 14 14 14 14 14 14 14 13
20 19 19 19 19 18 18 18 18 17 17 17 17 16 16 16 16 16 16 16 15 15 15 15 15 15 15 15 15 15 15 15 15 15 15 14 14 14 14 14 14 13 13
20 19 19 19 19 18 18 18 18 17 17 17 17 16 16 16 16 16 16 15 15 15 15 15 15 15 15 15 15 15 15 15 15 15 15 14 14 14 14 14 13 13 13
20 19 19 19 18 18 18 18 18 17 17 17 17 16 16 16 16 15 15 15 15 15 15 15 15 15 15 15 15 15 15 15 15 15 15 15 15 14 13 13 13 13 13
20 19 19 19 18 18 18 18 17 17 17 17 17 16 16 16 16 16 15 15 15 15 15 15 15 15 15 15 15 15 15 15 15 15 15 15 15 15 14 13 13 13 13
20 20 19 19 18 18 18 17 17 17 17 17 17 16 16 16 16 16 15 15 15 15 15 15 15 15 15 15 14 14 14 15 15 15 15 14 14 14 14 14 13 13 12
20 19 19 18 18 18 17 17 17 17 17 17 17 16 16 16 16 16 15 15 15 15 15 15 15 14 14 14 14 14 14 14 14 14 14 14 14 14 14 14 13 13 12
20 19 19 18 18 17 17 17 17 17 17 17 17 16 16 16 16 16 15 15 15 15 15 15 14 14 14 14 14 14 14 14 14 14 14 14 14 14 14 14 14 13 12
20 19 19 18 18 18 17 17 17 17 17 16 16 16 16 16 16 16 15 15 15 15 15 14 14 14 14 14 14 14 14 14 14 14 14 14 14 14 14 14 13 13 13
20 19 19 18 18 18 17 17 17 17 17 17 16 16 16 16 16 16 15 15 15 15 14 14 14 14 14 14 14 14 14 14 14 14 14 14 14 13 13 13 13 13 13
20 19 18 18 18 18 17 17 17 17 17 17 16 16 16 16 15 15 15 15 15 14 14 14 14 14 14 14 14 14 14 14 14 14 14 13 13 13 13 13 13 13 13
19 19 18 18 18 17 17 17 17 17 17 16 16 16 16 16 15 15 15 15 15 14 14 14 14 14 14 14 14 14 14 14 13 13 13 13 13 13 13 13 13 13 13
19 19 18 18 17 17 17 17 17 17 16 16 16 16 16 15 15 15 15 15 15 14 14 14 14 14 14 14 14 14 13 13 13 13 13 13 13 13 13 13 13 12 12
19 18 18 18 17 17 17 17 16 16 16 16 16 16 16 15 15 15 15 15 15 14 14 14 14 14 14 14 13 13 13 13 13 13 13 13 13 13 13 13 12 12 12
19 18 18 17 17 17 16 16 16 16 16 16 16 15 16 15 15 15 15 15 14 14 14 14 14 14 13 13 13 13 13 13 13 13 13 13 13 13 13 13 12 12 12
18 18 17 17 17 17 16 16 16 16 16 15 15 15 15 15 15 15 14 14 14 14 14 14 13 13 13 13 13 13 13 13 13 13 13 13 13 13 12 12 12 12 12
18 18 17 17 17 16 16 16 16 15 15 15 15 15 15 15 15 14 14 14 14 14 13 13 13 13 13 13 13 13 13 13 13 13 12 12 13 12 12 12 12 12 12
18 17 17 17 17 16 16 16 15 15 15 15 15 15 14 14 14 14 14 14 13 13 13 13 13 13 13 13 13 13 13 13 12 12 12 12 12 12 12 12 12 12 11
17 17 17 16 16 16 16 15 15 15 15 14 14 14 14 14 14 14 14 13 13 13 13 13 13 13 12 12 12 12 12 12 12 12 12 12 12 12 12 12 12 11 11
16 16 16 16 16 16 15 15 15 15 14 14 14 14 14 14 14 13 13 13 13 13 13 12 12 12 12 12 12 12 12 12 12 12 12 12 12 11 11 11 11 11 11
16 16 15 15 15 15 15 15 15 14 14 14 14 13 13 13 13 13 13 13 13 12 12 12 12 12 12 12 12 12 12 12 12 12 11 11 11 11 11 11 11 11 10
15 15 15 15 15 15 15 15 14 14 14 14 13 13 13 13 13 13 13 12 12 12 12 12 12 12 12 12 11 11 11 11 11 11 11 11 11 11 10 10 10 10 10
15 14 14 14 14 14 14 14 14 14 14 13 13 13 13 12 12 12 12 12 12 12 12 11 11 11 11 11 11 11 11 11 11 11 10 10 10 10 10 10 10 10 9
14 14 14 14 14 14 14 14 14 13 13 13 13 12 12 12 12 12 12 12 12 12 12 11 11 11 11 11 11 11 11 11 10 10 10 10 10 10 10 9 9 9 9
14 14 13 13 13 13 13 13 13 13 13 13 12 12 12 12 12 12 12 12 12 12 12 11 11 11 11 11 11 11 10 10 10 10 10 9 9 9 9 9 9 9 9
13 13 13 13 13 13 13 13 13 13 12 12 12 12 12 12 11 11 11 11 11 11 11 11 11 11 11 10 10 10 10 10 10 10 9 9 9 9 9 9 9 9 8
Wind_Speed
6 5 5 5 5 5 5 6 6 4 3 3 3 3 2 2 3 3 4 5 5 5 5 3 3 4 3 3 4 3 3 2 3 3 3 4 4 5 4 5 5 6 9
6 6 6 4 5 4 5 6 5 5 4 3 2 3 3 2 3 2 3 4 5 5 3 3 3 3 3 3 3 3 2 1 2 2 2 2 2 3 4 3 4 4 7
7 8 7 5 4 4 4 4 5 5 4 4 2 3 3 2 2 2 2 3 5 4 4 3 2 3 3 3 2 2 2 1 1 1 2 2 1 1 2 4 4 4 4
7 7 7 6 5 5 4 4 4 5 4 4 3 4 3 2 2 2 2 2 3 3 3 3 2 2 2 3 1 2 1 1 1 2 1 2 2 2 2 2 3 4 5
7 8 7 7 6 5 5 4 4 4 4 4 4 3 2 2 2 3 3 2 2 2 2 2 2 2 2 2 2 2 2 1 1 0 1 1 0 1 2 2 2 3 3
7 8 8 7 6 5 5 4 3 3 4 4 5 4 4 4 3 3 3 2 2 1 2 2 1 1 2 2 2 2 2 1 1 1 1 1 1 1 1 2 3 3 1
6 6 7 8 6 6 5 4 4 3 3 4 4 5 5 5 5 4 4 3 2 1 1 1 1 1 2 3 2 2 1 1 1 1 1 1 1 1 2 2 2 2 2
6 6 6 7 7 7 6 5 5 4 4 4 3 4 5 3 3 4 4 3 3 3 2 2 2 1 2 3 2 1 1 1 2 2 2 2 2 2 2 2 3 2 1
6 6 6 6 6 7 6 6 5 5 4 4 3 3 4 4 4 4 3 3 3 3 3 3 2 2 2 2 3 2 2 2 2 2 1 2 1 2 2 2 2 2 2
5 5 5 5 5 6 6 6 5 5 5 5 4 3 3 4 3 3 4 4 4 3 3 3 3 3 2 2 3 2 1 3 2 1 2 2 1 2 2 2 2 2 2
5 5 4 4 4 4 5 5 5 4 3 4 4 4 3 4 4 3 4 4 4 4 3 3 3 3 3 3 3 2 2 2 1 1 2 2 2 2 2 2 2 2 3
4 5 5 4 4 3 3 3 4 4 3 3 3 4 5 5 4 4 4 3 4 4 4 4 3 3 3 3 3 3 2 1 2 2 2 2 2 2 2 2 2 2 2
4 4 4 4 3 3 2 2 2 3 3 3 3 3 5 5 5 5 4 4 3 3 3 3 3 3 2 2 3 3 2 2 1 2 2 3 3 2 2 2 2 2 3
3 3 4 4 3 2 3 3 2 2 3 4 4 3 4 5 5 4 4 4 4 4 4 3 3 3 2 2 2 2 2 2 1 1 1 2 3 2 2 3 2 3 3
3 3 3 3 3 3 2 3 3 3 3 3 4 4 3 4 4 4 4 3 3 3 3 3 3 3 2 1 1 1 2 2 2 1 2 3 5 5 3 3 2 3 2
3 2 2 3 3 3 2 3 3 3 3 3 4 4 3 4 5 4 3 3 3 2 3 3 3 3 2 2 2 1 0 2 3 3 2 3 4 5 5 6 5 4 3
2 2 2 2 1 2 3 3 2 2 3 3 3 3 3 3 4 4 3 4 4 3 2 3 3 3 4 4 2 1 1 1 2 3 3 2 3 4 3 3 3 2 2
1 1 1 1 1 1 1 2 2 2 2 3 3 3 3 3 4 4 4 4 3 3 3 3 3 3 4 5 4 2 1 1 1 2 3 3 3 3 3 3 3 2 1
2 1 1 1 1 1 2 3 3 2 2 3 3 3 3 3 4 4 5 4 4 3 3 3 4 4 4 6 5 3 2 2 2 2 2 3 3 4 5 3 2 2 1
2 1 0 0 0 0 1 2 3 3 2 2 2 3 3 4 4 5 4 3 3 4 4 4 4 5 4 6 6 5 2 3 2 2 2 3 4 5 5 3 3 3 3
1 1 1 1 1 1 2 2 2 3 2 2 2 3 3 4 4 4 4 3 3 4 4 4 4 4 5 6 7 6 3 3 3 2 2 2 5 5 4 3 2 3 2
1 1 1 1 1 2 2 1 2 2 2 2 3 2 2 3 3 4 4 4 4 4 4 4 4 3 4 5 6 8 6 3 2 2 2 3 6 6 5 3 3 3 2
2 2 1 1 2 1 1 2 2 2 2 2 3 3 2 2 3 4 4 4 4 4 4 4 4 3 3 5 8 9 8 5 2 1 2 3 4 4 3 5 5 4 3
2 2 1 2 2 2 2 2 2 2 2 2 3 3 3 2 2 2 3 3 4 4 4 4 4 3 3 3 4 4 4 4 2 2 2 3 4 3 3 3 4 4 3
2 2 2 3 3 2 2 2 2 2 3 3 3 3 2 2 2 2 2 3 3 4 4 4 4 4 4 4 6 5 4 4 4 3 2 2 2 2 3 3 3 3 3
2 2 3 3 3 2 2 2 3 3 3 3 3 3 2 2 2 3 2 1 2 3 4 5 5 4 5 6 7 7 6 6 5 3 3 3 4 4 4 4 3 3 3
Wind_Direction
164 156 145 137 138 133 126 123 128 123 108 99 99 94 75 66 69 65 65 50 48 58 75 79 68 82 82 77 82 84 76 71 84 80 72 65 72 81 63 65 72 68 72
164 150 141 145 147 140 140 135 137 134 118 104 108 113 103 89 80 63 59 60 58 50 63 97 90 87 89 77 77 83 74 60 82 105 116 103 59 57 76 71 72 66 67
171 160 155 152 147 147 146 145 147 138 134 131 115 101 87 78 92 87 68 59 66 61 47 51 90 111 117 122 118 111 99 69 350 58 118 124 135 110 59 72 75 70 62
170 159 156 156 160 159 149 151 149 148 148 138 132 140 148 149 133 116 119 106 90 74 62 48 75 98 105 120 143 109 92 90 344 334 21 95 128 135 126 60 78 81 72
169 161 162 162 161 160 154 156 157 154 155 157 156 167 152 148 131 121 119 106 100 93 76 57 66 81 103 111 95 82 77 78 82 44 51 61 78 123 132 141 118 74 67
166 163 161 155 157 151 143 150 156 164 165 172 169 175 162 151 137 132 136 123 112 97 78 74 81 86 91 98 102 104 103 90 70 53 96 130 115 125 110 136 142 120 94
154 155 154 150 149 149 151 158 156 171 181 192 182 176 174 168 168 165 163 157 148 142 129 100 64 75 90 96 89 100 119 122 91 72 49 49 67 94 98 111 124 131 139
155 156 150 148 154 156 159 169 174 185 192 195 193 183 170 168 170 165 159 155 149 147 139 124 103 83 91 98 84 77 69 80 80 74 64 61 40 67 99 117 120 127 126
149 151 148 148 155 162 169 180 178 183 184 190 197 198 171 163 157 163 154 142 146 151 147 141 123 103 94 92 94 82 69 75 70 69 74 88 80 75 76 90 120 134 131
137 138 143 151 155 167 173 179 180 180 187 184 186 176 165 155 150 158 152 152 145 139 154 149 145 149 132 107 90 83 74 83 80 77 68 66 75 77 78 71 48 70 127
128 132 137 150 156 153 163 175 176 173 176 179 171 162 171 160 155 166 149 149 146 150 168 165 161 150 143 133 132 145 130 126 144 153 122 102 92 104 103 94 73 62 88
138 134 133 132 138 147 153 174 172 171 173 175 171 170 172 160 163 166 163 171 165 168 176 168 156 147 147 149 144 154 154 154 136 135 126 127 108 93 92 104 106 101 104
142 133 128 128 132 142 154 171 180 175 171 168 170 166 168 165 172 175 172 170 170 165 159 155 143 149 151 146 153 156 157 160 168 158 145 147 136 143 141 129 118 120 115
137 135 133 139 145 168 182 180 177 169 177 173 176 176 177 165 165 170 172 178 178 166 168 166 152 157 157 151 160 157 152 149 114 104 123 123 132 135 144 135 132 130 123
139 142 147 151 161 184 188 174 179 177 182 179 180 184 180 162 163 170 177 173 167 166 163 160 155 157 165 161 134 146 155 146 126 78 74 90 104 102 100 109 108 117 127
159 164 163 162 175 183 182 165 177 190 189 188 191 174 168 161 158 171 174 160 156 169 157 160 160 157 161 128 117 72 154 166 154 148 149 138 117 118 116 108 103 106 129
167 165 169 177 178 188 183 174 179 184 177 175 163 154 153 148 155 168 167 162 167 178 177 168 156 157 157 156 164 179 276 179 159 162 174 177 156 148 159 150 133 124 139
143 147 166 159 169 170 172 175 162 171 178 168 159 153 158 157 162 166 175 176 176 177 183 180 165 157 170 175 183 203 204 215 203 187 176 168 176 182 156 156 166 178 192
41 47 75 110 165 167 173 170 172 185 187 180 167 160 163 163 167 178 183 185 186 178 179 189 171 164 179 189 191 188 185 201 220 211 183 179 166 168 166 161 172 176 202
32 18 1 96 177 198 191 189 180 185 183 175 174 163 174 172 182 189 186 190 194 182 180 188 186 181 182 192 194 199 198 203 210 205 188 182 168 170 171 180 186 196 210
355 359 315 190 204 221 213 200 190 193 179 165 171 178 180 185 188 186 180 185 193 187 189 191 193 187 182 190 194 195 208 206 204 197 188 185 174 173 178 182 190 205 211
277 245 248 232 217 225 215 211 199 184 169 167 169 175 181 196 194 177 183 191 187 187 196 199 198 186 181 181 194 194 206 226 208 203 192 186 181 183 191 198 204 210 220
242 236 225 250 235 235 214 210 192 163 161 168 173 178 189 200 182 180 189 196 193 196 202 195 196 195 185 183 191 198 208 225 228 211 192 182 187 187 198 207 209 208 212
256 233 225 247 247 232 218 203 176 168 173 185 191 189 192 198 182 186 191 194 197 201 205 205 204 198 182 177 183 191 202 211 222 221 189 184 188 193 208 215 219 217 209
251 235 230 238 243 222 204 184 187 199 206 207 209 202 198 202 195 193 191 198 202 204 202 201 194 187 194 199 185 179 189 196 200 185 176 185 196 212 220 217 214 213 208
254 250 244 242 249 240 217 191 201 210 209 214 213 204 197 201 192 186 185 173 194 208 195 192 191 197 194 182 180 186 192 192 184 172 195 205 208 209 210 210 213 214 214
Height
1528 1530 1531 1533 1535 1537 1538 1539 1540 1542 1543 1544 1545 1546 1547 1548 1548 1549 1549 1550 1550 1550 1551 1551 1552 1552 1552 1553 1553 1554 1554 1555 1556 1556 1556 1557 1557 1558 1558 1557 1557 1557 1557
1527 1528 1530 1532 1534 1536 1537 1538 1540 1541 1543 1544 1545 1546 1547 1547 1548 1548 1549 1550 1550 1550 1551 1551 1552 1552 1553 1553 1554 1555 1555 1556 1556 1557 1557 1558 1560 1559 1559 1559 1558 1558 1558
1525 1527 1529 1531 1533 1535 1536 1538 1539 1541 1542 1543 1545 1546 1547 1547 1548 1548 1549 1549 1550 1550 1551 1551 1552 1552 1553 1553 1554 1555 1555 1556 1556 1557 1558 1558 1558 1559 1560 1559 1559 1559 1558
1523 1525 1527 1529 1532 1534 1535 1537 1538 1540 1541 1542 1544 1545 1546 1547 1548 1548 1549 1549 1550 1550 1551 1551 1552 1552 1553 1553 1554 1554 1555 1556 1556 1557 1557 1558 1558 1559 1560 1561 1560 1560 1559
1520 1523 1525 1528 1530 1532 1534 1536 1537 1539 1540 1541 1543 1544 1545 1546 1547 1548 1548 1549 1550 1550 1551 1551 1551 1552 1552 1553 1553 1554 1555 1555 1556 1556 1557 1557 1558 1558 1559 1560 1561 1560 1560
1518 1521 1524 1526 1529 1531 1533 1534 1536 1537 1538 1540 1541 1543 1544 1545 1546 1547 1548 1548 1549 1550 1550 1551 1551 1552 1552 1552 1553 1553 1554 1555 1555 1556 1556 1557 1557 1557 1558 1558 1559 1560 1560
1516 1519 1522 1524 1527 1529 1531 1533 1534 1536 1537 1539 1540 1541 1543 1544 1545 1546 1547 1548 1548 1549 1549 1550 1551 1551 1552 1552 1552 1553 1553 1554 1554 1555 1555 1556 1556 1557 1557 1557 1558 1559 1560
1515 1518 1520 1523 1525 1527 1529 1531 1533 1534 1536 1537 1539 1540 1541 1543 1544 1545 1546 1547 1547 1548 1549 1549 1550 1551 1551 1551 1552 1552 1553 1553 1554 1554 1555 1555 1556 1556 1556 1557 1557 1558 1559
1514 1516 1519 1521 1524 1526 1528 1529 1531 1533 1534 1536 1537 1539 1540 1541 1543 1544 1545 1546 1546 1547 1548 1548 1549 1549 1550 1551 1551 1551 1552 1552 1553 1553 1554 1554 1555 1555 1556 1556 1557 1558 1558
1514 1516 1518 1520 1522 1524 1526 1528 1529 1531 1533 1534 1536 1537 1538 1540 1541 1543 1543 1544 1545 1546 1547 1548 1548 1548 1549 1549 1550 1551 1551 1552 1552 1553 1553 1553 1554 1554 1555 1555 1556 1556 1557
1513 1515 1517 1519 1521 1523 1524 1526 1527 1529 1531 1532 1534 1535 1537 1538 1540 1541 1542 1543 1544 1545 1546 1547 1547 1548 1548 1548 1549 1550 1550 1551 1551 1552 1552 1553 1553 1553 1554 1554 1555 1555 1556
1513 1515 1516 1518 1520 1521 1522 1524 1525 1527 1528 1530 1532 1533 1535 1537 1538 1540 1541 1542 1543 1544 1545 1546 1546 1547 1548 1548 1549 1549 1549 1550 1550 1551 1551 1552 1552 1553 1553 1553 1554 1554 1555
1512 1514 1515 1517 1518 1519 1521 1522 1523 1524 1526 1528 1529 1531 1533 1534 1536 1537 1539 1540 1541 1542 1543 1544 1545 1546 1546 1547 1547 1548 1548 1549 1549 1550 1550 1550 1551 1551 1552 1552 1552 1553 1553
1512 1513 1514 1516 1517 1518 1519 1520 1521 1522 1524 1525 1527 1528 1530 1532 1533 1535 1537 1538 1540 1540 1541 1542 1543 1544 1545 1545 1546 1546 1547 1547 1548 1548 1549 1549 1550 1550 1550 1551 1551 1552 1552
1511 1512 1513 1514 1516 1517 1517 1518 1519 1520 1521 1523 1524 1526 1527 1529 1531 1532 1534 1536 1537 1538 1539 1540 1541 1542 1543 1544 1544 1545 1545 1545 1546 1546 1547 1548 1548 1549 1549 1550 1550 1550 1551
1509 1510 1512 1513 1514 1515 1515 1516 1517 1517 1518 1520 1521 1523 1524 1526 1528 1530 1531 1533 1535 1536 1537 1537 1538 1539 1540 1541 1542 1543 1543 1544 1544 1544 1545 1546 1546 1547 1547 1548 1549 1549 1549
1507 1508 1510 1511 1512 1513 1513 1514 1515 1516 1516 1517 1519 1520 1522 1523 1525 1527 1529 1530 1531 1532 1534 1535 1536 1536 1537 1538 1540 1540 1541 1541 1542 1542 1543 1543 1544 1545 1545 1546 1547 1547 1548
1505 1506 1508 1508 1509 1510 1511 1512 1513 1513 1514 1515 1516 1517 1519 1520 1522 1523 1525 1526 1528 1529 1531 1532 1533 1533 1534 1536 1537 1538 1538 1539 1539 1540 1540 1541 1542 1542 1543 1543 1544 1544 1545
1503 1505 1505 1506 1507 1508 1508 1509 1510 1511 1512 1513 1513 1514 1516 1517 1518 1520 1521 1523 1525 1526 1527 1528 1530 1530 1531 1532 1534 1534 1535 1536 1536 1537 1538 1539 1539 1540 1540 1541 1541 1541 1542
1501 1502 1503 1504 1505 1505 1506 1507 1508 1508 1509 1510 1511 1511 1512 1514 1515 1516 1518 1520 1522 1523 1524 1525 1526 1527 1528 1529 1530 1531 1532 1532 1533 1534 1535 1535 1536 1537 1537 1538 1538 1538 1539
1499 1500 1501 1501 1502 1503 1504 1504 1505 1506 1506 1507 1508 1509 1509 1511 1512 1514 1515 1517 1518 1520 1521 1522 1523 1524 1525 1526 1527 1527 1528 1529 1530 1530 1531 1532 1533 1534 1534 1534 1535 1535 1536
1497 1498 1498 1499 1500 1500 1501 1501 1502 1503 1503 1504 1505 1506 1507 1508 1509 1510 1512 1513 1515 1516 1517 1519 1520 1521 1521 1522 1523 1524 1525 1526 1526 1527 1528 1529 1529 1530 1530 1531 1531 1532 1532
1495 1496 1496 1496 1497 1497 1498 1498 1499 1500 1500 1501 1502 1503 1504 1505 1506 1507 1508 1510 1511 1512 1514 1515 1516 1517 1518 1518 1519 1520 1521 1522 1523 1523 1524 1525 1526 1526 1526 1527 1528 1528 1528
1492 1492 1492 1492 1493 1494 1495 1495 1496 1497 1498 1498 1499 1500 1501 1502 1503 1504 1505 1506 1507 1508 1510 1511 1512 1513 1514 1514 1515 1516 1517 1518 1518 1519 1519 1520 1521 1522 1522 1523 1523 1524 1524
1489 1489 1489 1489 1490 1490 1491 1491 1492 1493 1494 1495 1496 1496 1497 1498 1499 1500 1501 1502 1503 1504 1505 1506 1507 1508 1509 1510 1511 1512 1512 1513 1514 1514 1515 1515 1516 1517 1517 1518 1519 1519 1519
1486 1486 1486 1486 1486 1487 1487 1488 1489 1490 1490 1491 1492 1492 1493 1494 1495 1496 1498 1499 1500 1501 1502 1503 1504 1505 1506 1507 1507 1508 1509 1509 1510 1510 1510 1511 1512 1512 1513 1513 1514 1515 1515